When you browse on this site, cookies collect data to enhance your experience and personalize the content and advertising you see.
Visit our Privacy Policy to learn more. By continuing to use the site, you agree to this use of cookies and data.
  • In Romania
  • List of Countries
  • For 7 days
  • Water Temperature
  • Satellite Maps
  • Weather Map
  • Weather Widgets
  • user-avatar
    Login

    Hourly Weather Bogdanovka

    Today, 26 April, Friday

    Time Temperature Precipitation Wind Pressure Humidity
    00:00 +18°C° 0 mm 2 mps 748 mmHg 50%
    01:00 +17°C° 0.2 mm 2 mps 748 mmHg 54%
    02:00 +16°C° 0.2 mm 2 mps 748 mmHg 59%
    03:00 +15°C° 0.2 mm 2 mps 748 mmHg 64%
    04:00 +15°C° 0.1 mm 2 mps 748 mmHg 64%
    05:00 +14°C° 0.1 mm 1 mps 748 mmHg 64%
    06:00 +14°C° 0.1 mm 1 mps 748 mmHg 64%
    07:00 +15°C° 0 mm 1 mps 748 mmHg 58%
    08:00 +17°C° 0 mm 2 mps 748 mmHg 53%
    09:00 +18°C° 0 mm 2 mps 748 mmHg 47%
    10:00 +19°C° 0 mm 2 mps 748 mmHg 43%
    11:00 +20°C° 0 mm 2 mps 748 mmHg 39%
    12:00 +21°C° 0 mm 3 mps 748 mmHg 36%
    13:00 +21°C° 0 mm 2 mps 748 mmHg 34%
    14:00 +21°C° 0 mm 2 mps 748 mmHg 32%
    15:00 +23°C° 0 mm 2 mps 748 mmHg 31%
    16:00 +21°C° 0 mm 2 mps 748 mmHg 33%
    17:00 +21°C° 0 mm 2 mps 747 mmHg 35%
    18:00 +22°C° 0 mm 1 mps 747 mmHg 36%
    19:00 +19°C° 0 mm 2 mps 747 mmHg 39%
    20:00 +18°C° 0 mm 2 mps 747 mmHg 42%
    21:00 +17°C° 0 mm 2 mps 747 mmHg 45%
    22:00 +16°C° 0 mm 2 mps 747 mmHg 47%
    23:00 +16°C° 0 mm 2 mps 747 mmHg 48%

    Tomorrow, 27 April, Saturday

    Time Temperature Precipitation Wind Pressure Humidity
    00:00 +16°C° 0 mm 2 mps 747 mmHg 50%
    01:00 +15°C° 0 mm 2 mps 746 mmHg 53%
    02:00 +15°C° 0 mm 2 mps 746 mmHg 56%
    03:00 +14°C° 0 mm 2 mps 746 mmHg 58%
    04:00 +14°C° 0 mm 2 mps 746 mmHg 61%
    05:00 +14°C° 0 mm 2 mps 745 mmHg 63%
    06:00 +13°C° 0 mm 2 mps 745 mmHg 65%
    07:00 +15°C° 0 mm 2 mps 745 mmHg 60%
    08:00 +17°C° 0 mm 2 mps 745 mmHg 55%
    09:00 +19°C° 0 mm 2 mps 744 mmHg 50%
    10:00 +20°C° 0 mm 2 mps 744 mmHg 44%
    11:00 +21°C° 0 mm 3 mps 744 mmHg 38%
    12:00 +22°C° 0 mm 3 mps 743 mmHg 32%
    13:00 +22°C° 0 mm 3 mps 743 mmHg 36%
    14:00 +21°C° 0 mm 3 mps 742 mmHg 40%
    15:00 +21°C° 0 mm 3 mps 742 mmHg 44%
    16:00 +20°C° 0 mm 3 mps 742 mmHg 45%
    17:00 +20°C° 0 mm 3 mps 741 mmHg 47%
    18:00 +20°C° 0 mm 3 mps 741 mmHg 48%
    19:00 +19°C° 0 mm 3 mps 740 mmHg 52%
    20:00 +18°C° 0 mm 3 mps 740 mmHg 56%
    21:00 +16°C° 0 mm 3 mps 740 mmHg 59%
    22:00 +16°C° 0 mm 3 mps 739 mmHg 65%
    23:00 +14°C° 0 mm 3 mps 739 mmHg 71%

    Day after tomorrow, 28 April, Sunday

    Time Temperature Precipitation Wind Pressure Humidity
    00:00 +13°C° 0 mm 3 mps 738 mmHg 77%
    01:00 +13°C° 0.2 mm 3 mps 738 mmHg 80%
    02:00 +13°C° 0.2 mm 4 mps 738 mmHg 82%
    03:00 +13°C° 0.2 mm 4 mps 737 mmHg 84%
    04:00 +13°C° 1.3 mm 4 mps 737 mmHg 86%
    05:00 +13°C° 1.3 mm 4 mps 737 mmHg 88%
    06:00 +12°C° 1.3 mm 3 mps 737 mmHg 90%
    07:00 +12°C° 0.3 mm 4 mps 737 mmHg 88%
    08:00 +12°C° 0.3 mm 5 mps 738 mmHg 87%
    09:00 +11°C° 0.3 mm 6 mps 738 mmHg 85%
    10:00 +10°C° 0 mm 6 mps 739 mmHg 82%
    11:00 +9°C° 0 mm 7 mps 739 mmHg 80%
    12:00 +8°C° 0 mm 7 mps 740 mmHg 77%
    13:00 +9°C° 0 mm 6 mps 740 mmHg 70%
    14:00 +10°C° 0 mm 6 mps 741 mmHg 63%
    15:00 +11°C° 0 mm 6 mps 741 mmHg 55%
    16:00 +10°C° 0 mm 6 mps 741 mmHg 53%
    17:00 +9°C° 0 mm 6 mps 742 mmHg 50%
    18:00 +9°C° 0 mm 6 mps 742 mmHg 47%
    19:00 +7°C° 0 mm 6 mps 743 mmHg 50%
    20:00 +5°C° 0 mm 6 mps 744 mmHg 53%
    21:00 +4°C° 0 mm 6 mps 745 mmHg 56%
    22:00 +3°C° 0 mm 6 mps 745 mmHg 57%
    23:00 +2°C° 0 mm 5 mps 746 mmHg 59%

    29 April, Monday

    Time Temperature Precipitation Wind Pressure Humidity
    00:00 +1°C° 0 mm 5 mps 746 mmHg 61%
    01:00 +1°C° 0 mm 5 mps 746 mmHg 63%
    02:00 0°C° 0 mm 4 mps 746 mmHg 65%
    03:00 0°C° 0 mm 4 mps 747 mmHg 67%
    04:00 -1°C° 0 mm 4 mps 747 mmHg 69%
    05:00 -1°C° 0 mm 4 mps 747 mmHg 70%
    06:00 -1°C° 0 mm 4 mps 747 mmHg 71%
    07:00 0°C° 0 mm 5 mps 748 mmHg 68%
    08:00 +1°C° 0 mm 5 mps 748 mmHg 64%
    09:00 +3°C° 0 mm 5 mps 748 mmHg 61%
    10:00 +3°C° 0 mm 5 mps 748 mmHg 58%
    11:00 +5°C° 0 mm 5 mps 748 mmHg 54%
    12:00 +6°C° 0 mm 5 mps 748 mmHg 51%
    13:00 +7°C° 0 mm 5 mps 748 mmHg 48%
    14:00 +8°C° 0 mm 5 mps 748 mmHg 45%
    15:00 +8°C° 0 mm 4 mps 748 mmHg 43%
    16:00 +8°C° 0 mm 4 mps 747 mmHg 42%
    17:00 +8°C° 0 mm 4 mps 747 mmHg 42%
    18:00 +7°C° 0 mm 4 mps 747 mmHg 41%
    19:00 +7°C° 0 mm 3 mps 747 mmHg 45%
    20:00 +5°C° 0 mm 3 mps 747 mmHg 48%
    21:00 +3°C° 0 mm 3 mps 748 mmHg 52%
    22:00 +3°C° 0 mm 3 mps 748 mmHg 53%
    23:00 +2°C° 0 mm 3 mps 748 mmHg 54%

    30 April, Tuesday

    Time Temperature Precipitation Wind Pressure Humidity
    00:00 +3°C° 0 mm 2 mps 748 mmHg 56%
    01:00 +2°C° 0 mm 2 mps 748 mmHg 57%
    02:00 +2°C° 0 mm 2 mps 747 mmHg 58%
    03:00 +1°C° 0 mm 2 mps 747 mmHg 60%
    04:00 +1°C° 0 mm 2 mps 747 mmHg 60%
    05:00 +1°C° 0 mm 2 mps 747 mmHg 61%
    06:00 +1°C° 0 mm 2 mps 747 mmHg 61%
    07:00 +3°C° 0 mm 2 mps 747 mmHg 56%
    08:00 +5°C° 0 mm 2 mps 746 mmHg 52%
    09:00 +6°C° 0 mm 2 mps 746 mmHg 47%
    10:00 +7°C° 0 mm 2 mps 746 mmHg 44%
    11:00 +8°C° 0 mm 2 mps 745 mmHg 41%
    12:00 +9°C° 0 mm 2 mps 745 mmHg 38%
    13:00 +9°C° 0 mm 2 mps 744 mmHg 38%
    14:00 +10°C° 0 mm 2 mps 744 mmHg 38%
    15:00 +10°C° 0 mm 2 mps 743 mmHg 38%
    16:00 +10°C° 0 mm 2 mps 743 mmHg 40%
    17:00 +10°C° 0 mm 2 mps 742 mmHg 42%
    18:00 +9°C° 0 mm 2 mps 742 mmHg 44%
    19:00 +9°C° 0 mm 2 mps 742 mmHg 46%
    20:00 +9°C° 0 mm 1 mps 742 mmHg 47%
    21:00 +9°C° 0 mm 1 mps 742 mmHg 49%
    22:00 +8°C° 0 mm 1 mps 742 mmHg 50%
    23:00 +8°C° 0 mm 1 mps 741 mmHg 50%

    1 May, Wednesday

    Time Temperature Precipitation Wind Pressure Humidity
    00:00 +8°C° 0 mm 1 mps 741 mmHg 51%
    01:00 +7°C° 0 mm 1 mps 741 mmHg 52%
    02:00 +7°C° 0 mm 1 mps 740 mmHg 54%
    03:00 +5°C° 0 mm 2 mps 740 mmHg 55%
    04:00 +5°C° 0 mm 2 mps 740 mmHg 57%
    05:00 +5°C° 0 mm 2 mps 740 mmHg 59%
    06:00 +5°C° 0 mm 2 mps 739 mmHg 61%
    07:00 +6°C° 0 mm 2 mps 739 mmHg 58%
    08:00 +8°C° 0 mm 3 mps 739 mmHg 54%
    09:00 +9°C° 0 mm 3 mps 739 mmHg 50%
    10:00 +9°C° 0.1 mm 3 mps 739 mmHg 49%
    11:00 +10°C° 0.1 mm 4 mps 739 mmHg 48%
    12:00 +10°C° 0.1 mm 4 mps 739 mmHg 47%
    13:00 +10°C° 0.1 mm 4 mps 738 mmHg 47%
    14:00 +10°C° 0.1 mm 4 mps 738 mmHg 47%
    15:00 +11°C° 0.1 mm 4 mps 738 mmHg 47%
    16:00 +10°C° 0.1 mm 4 mps 737 mmHg 48%
    17:00 +10°C° 0.1 mm 4 mps 737 mmHg 49%
    18:00 +10°C° 0.1 mm 4 mps 737 mmHg 50%
    19:00 +8°C° 0 mm 4 mps 737 mmHg 54%
    20:00 +7°C° 0 mm 3 mps 736 mmHg 59%
    21:00 +5°C° 0 mm 3 mps 736 mmHg 64%
    22:00 +5°C° 0 mm 3 mps 736 mmHg 64%
    23:00 +4°C° 0 mm 3 mps 736 mmHg 65%
    Show more